Back to catalog

JACK-004

AliveScienceSSO
NORAD 66659·PAYLOAD·🇰🇷 South Korea

Launched Nov 26, 2025 from Naro Space Center

Loading…

Next Passes (next 24 hours)

TLE

FreshSource: Space-Track

Epoch: Sep 12, 2026, 17:59 UTC

1 66659U 25274K   26255.74997065  .00001788  00000-0  17229-3 0  9997
2 66659  97.7482 183.9537 0014907  86.8265 273.4660 14.94112668 43303

Track JACK-004 in real time with AllMySat

Download on the App Store